Find Starlink 32833

NORAD ID: 62873 Int'l Des: 2025-022 Owner: SPXS Country: US Constellation: starlink operational
LEOCIRCULAR

現在のビュー

3D地球を読み込み中...

About Starlink 32833

Starlink 32833 (NORAD 62873) is a starlink constellation satellite (v2 mini) launched Feb 2, 2025 by SPXS of US. It operates in LEO, CIRCULAR orbit with a mass of 730.00 kg.

Starlink 32833について

説明を読み込み中...

次回通過

Passes for default location (London). Set your location on the main map for personalized predictions.

高度履歴

Loading altitude history...

軌道要素

1 62873U 25022V 26169.00280348 .00007993 00000-0 24743-3 0 9997
2 62873 53.1611 23.3083 0001237 78.6335 281.4806 15.34400846 77265
Epoch: Jun 18, 2026 • Age: 14 hours

現在のステータス

高度 480.0 km
速度 7.62 km/s
衛星直下点 -48.48°S, 151.05°W
打ち上げ日 Feb 2, 2025
運用期間 1.3 years
タイプ internet

技術仕様

分類 Payload
質量 730.00 kg
乾燥質量 700.00 kg
総質量 730.00 kg
長さ 0.30 m
直径 4.10 m
スパン 29.00 m
形状 Box + pan
製造者 SPXS
バスタイプ Starlink V2M
フェーズステータス In Orbit
所有者/国 SPXS/US

Most Searched